sat.trackr.live / text

‹ back to catalog

STARLINK-30495

NORAD 57968 · 2023-151E

PAYLOAD ACTIVE UNKNOWN

§ Identity

Operator
Country
US
Launch date
2023-09-30
Launch site
AFETR
Launch vehicle
Mass (kg)
RCS (m²)

Purposes: comms

External: N2YO · Heavens-Above · Gunter

§ Orbital elements

Epoch: 2026-09-20T11:00:58.909824Z

Period
94.27 min
Inclination
43.0016°
Eccentricity
0.0001544
Mean motion
15.27565531 rev/d
Perigee alt
482.0 km
Apogee alt
484.2 km
Semi-major
6,861.2 km
B*
-1.0107e-4
RAAN
316.0669°
Arg perigee
275.7864°
Mean anomaly
84.2811°
Rev number
16,555

§ Raw data

STARLINK-304951 57968U 23151E   26263.45901516 -.00003041  00000+0 -10107-3 0  99982 57968  43.0016 316.0669 0001544 275.7864  84.2811 15.27565531165551

JSON: /api/v1/satellites/57968 · /tle

For live sub-satellite position, see the globe view (requires WebGL).

§ Visibility from observer

Set your observer location to see the next 7 days of passes ≥ 10°. The values pass through the URL so the page stays shareable.

No JS? Fill the form by hand. The geolocation button needs JavaScript.